Powrót do katalogu

SL-16 DEB

LostLEO
NORAD 39879·DEBRIS·🇷🇺 Russia

Wystrzelony Mar 26, 1993 z Baikonur Cosmodrome

Loading…

Następne Przeloty (najbliższe 24 godziny)

TLE

NieaktualneSource: Space-Track

Epoka: Aug 23, 2022, 22:11 UTC

1 39879U 93016BD  22235.92465339  .00001881  00000-0  73839-3 0  9991
2 39879  70.9875 322.8225 0118430  94.2974  23.7294 14.26815282958952

Śledź SL-16 DEB w czasie rzeczywistym z AllMySat

Download on the App Store